Location: Unspecified
(40.7945°N, 0.0000°E)
Time: 19:29:32
(UTC+00:00)

Explorer 7 - Pass Details

Date: 22 June 2021
Orbit: 484 x 676 km, 50.3° (Epoch: 28 July)

Event Time Altitude Azimuth Distance (km) Brightness Sun altitude
Rises 22:25:41 0° 286° (WNW) 3,025 11.2 -22.0°
Reaches altitude 10° 22:28:24 10° 299° (WNW) 2,103 10.5 -22.2°
Maximum altitude 22:32:29 26° 356° (N) 1,301 9.4 -22.5°
Drops below altitude 10° 22:36:28 10° 53° (NE) 2,045 9.9 -22.8°
Sets 22:39:05 0° 67° (ENE) 2,924 10.6 -22.9°
